Location: Callanans Corners
(42.5326°N, 73.8846°W)
Time: 14:50:07
(UTC+00:00)

Aureole 3 Rocket - Pass Details

Date: 06 October 2022
Orbit: 397 x 1733 km, 82.5° (Epoch: 28 November)

Event Time Altitude Azimuth Distance (km) Brightness Sun altitude
Rises 22:46:34 0° 352° (N) 4,748 7.6 -4.2°
Reaches altitude 10° 22:49:55 10° 355° (N) 3,609 7.0 -4.8°
Maximum altitude 22:58:29 67° 77° (ENE) 1,264 4.4 -6.4°
Drops below altitude 10° 23:04:37 10° 160° (SSE) 2,628 6.1 -7.5°
Sets 23:06:44 0° 163° (SSE) 3,396 6.7 -7.9°
